Tracking 30995 objects as of 7-Jul-2025
HD Live streaming from Space Station
objects crossing your sky now

NOAA 16 DEB

Track NOAA 16 DEB now!
10-day predictions


NORAD ID: 41414
Int'l Code: 2000-055KT
Perigee: 509.2 km
Apogee: 523.6 km
Inclination: 98.9 °
Period: 94.8 minutes
Semi major axis: 6887 km
RCS: Unknown
Launch date: September 21, 2000
Source: United States (US)
Launch site: AIR FORCE WESTERN TEST RANGE (AFWTR)

Note: This is SATELLITE DEBRIS
Your satellite tracking list
SL-16 R/B
Track 1 satellite(s)




NASA's NSSDC Master Catalog

Two Line Element Set (TLE):
1 41414U 00055KT  25187.47878964  .00161548  00000-0  75817-2 0  9995
2 41414  98.9405  71.5862 0010433 341.0264  19.0576 15.18856186490821
Source of the keplerian elements: AFSPC